| time (UTC) | temp C | wind direction | speed KPH | gust KPH | rain 1hr cm | rain 24hr cm | rain mn cm | humidity % | barometer mb |
| 20260506083040 | 13 | 360 | 20.9 | 56.3 | 0.00 | 0.00 | 0.00 | 85 | 1018.2 |
| 20260506081545 | 12 | 360 | 17.7 | 46.7 | 0.00 | 0.00 | 0.00 | 87 | 1018.0 |
| 20260506073042 | 12 | 360 | 14.5 | 43.5 | 0.00 | 0.00 | 0.00 | 88 | 1018.7 |
| 20260506071531 | 11 | 360 | 11.3 | 32.2 | 0.00 | 0.00 | 0.00 | 88 | 1018.8 |
| 20260506061523 | 11 | 360 | 11.3 | 30.6 | 0.00 | 0.00 | 0.00 | 89 | 1019.2 |
| 20260506044533 | 10 | 360 | 11.3 | 32.2 | 0.00 | 0.00 | 0.00 | 83 | 1019.2 |
| 20260506043010 | 10 | 360 | 9.7 | 29.0 | 0.00 | 0.00 | 0.00 | 81 | 1019.3 |
| 20260506041508 | 10 | 360 | 8.0 | 20.9 | 0.00 | 0.00 | 0.00 | 79 | 1019.2 |
| 20260506040006 | 10 | 360 | 9.7 | 19.3 | 0.00 | 0.00 | 0.00 | 77 | 1019.0 |
| 20260506034510 | 10 | 360 | 8.0 | 33.8 | 0.00 | 0.00 | 0.00 | 76 | 1018.9 |
| 20260506033001 | 10 | 360 | 12.9 | 25.7 | 0.00 | 0.00 | 0.00 | 76 | 1018.6 |
| 20260506031502 | 10 | 360 | 14.5 | 37.0 | 0.00 | 0.00 | 0.00 | 77 | 1018.5 |
| 20260506030100 | 10 | 360 | 11.3 | 30.6 | 0.00 | 0.00 | 0.00 | 76 | 1018.5 |
| 20260506024556 | 10 | 360 | 11.3 | 29.0 | 0.00 | 0.00 | 0.00 | 76 | 1018.3 |
| 20260506023109 | 10 | 360 | 11.3 | 33.8 | 0.00 | 0.00 | 0.00 | 74 | 1018.1 |
| 20260506021554 | 10 | 360 | 17.7 | 33.8 | 0.00 | 0.00 | 0.00 | 74 | 1018.1 |
| 20260506020052 | 10 | 360 | 17.7 | 33.8 | 0.00 | 0.00 | 0.00 | 74 | 1018.1 |
| 20260506014551 | 10 | 360 | 16.1 | 38.6 | 0.00 | 0.00 | 0.00 | 75 | 1017.8 |
| 20260506013049 | 10 | 360 | 9.7 | 30.6 | 0.00 | 0.00 | 0.00 | 76 | 1017.6 |
| 20260506011603 | 10 | 360 | 11.3 | 30.6 | 0.00 | 0.00 | 0.00 | 77 | 1017.5 |
| 20260506010056 | 10 | 360 | 11.3 | 25.7 | 0.00 | 0.00 | 0.00 | 77 | 1017.5 |
| 20260506004603 | 10 | 360 | 14.5 | 33.8 | 0.00 | 0.00 | 0.00 | 77 | 1017.3 |
| 20260506003056 | 10 | 360 | 12.9 | 24.1 | 0.00 | 0.00 | 0.00 | 77 | 1017.1 |
| 20260506001543 | 10 | 360 | 8.0 | 20.9 | 0.00 | 0.00 | 0.00 | 77 | 1016.9 |
| 20260506000046 | 10 | 360 | 9.7 | 19.3 | 0.00 | 0.00 | 0.00 | 76 | 1016.9 |
| 20260505234559 | 10 | 360 | 11.3 | 30.6 | 0.00 | 0.00 | 0.00 | 76 | 1016.7 |
| 20260505233040 | 10 | 360 | 8.0 | 19.3 | 0.00 | 0.00 | 0.00 | 75 | 1016.4 |
| 20260505231537 | 11 | 360 | 8.0 | 16.1 | 0.00 | 0.00 | 0.00 | 73 | 1016.1 |
| 20260505230041 | 11 | 360 | 8.0 | 14.5 | 0.00 | 0.00 | 0.00 | 72 | 1015.7 |
| 20260505224536 | 11 | 360 | 6.4 | 17.7 | 0.00 | 0.00 | 0.00 | 70 | 1015.5 |
| 20260505223031 | 12 | 360 | 8.0 | 17.7 | 0.00 | 0.00 | 0.00 | 68 | 1015.1 |
| 20260505221528 | 12 | 360 | 3.2 | 16.1 | 0.00 | 0.00 | 0.00 | 68 | 1014.8 |
| 20260505220038 | 12 | 360 | 11.3 | 32.2 | 0.00 | 0.00 | 0.00 | 67 | 1014.6 |
| 20260505214532 | 13 | 360 | 11.3 | 25.7 | 0.00 | 0.00 | 0.00 | 65 | 1014.3 |
| 20260505213023 | 13 | 360 | 9.7 | 33.8 | 0.00 | 0.00 | 0.00 | 61 | 1014.0 |
| 20260505211520 | 14 | 360 | 12.9 | 37.0 | 0.00 | 0.00 | 0.00 | 55 | 1013.6 |
| 20260505210019 | 15 | 360 | 11.3 | 37.0 | 0.00 | 0.00 | 0.00 | 47 | 1013.5 |
| 20260505204518 | 15 | 360 | 9.7 | 25.7 | 0.00 | 0.00 | 0.00 | 43 | 1013.3 |
| 20260505203017 | 16 | 360 | 17.7 | 40.2 | 0.00 | 0.00 | 0.00 | 41 | 1013.2 |
| 20260505201521 | 15 | 360 | 14.5 | 37.0 | 0.00 | 0.00 | 0.00 | 40 | 1013.1 |
| 20260505200015 | 16 | 360 | 14.5 | 33.8 | 0.00 | 0.00 | 0.00 | 41 | 1013.1 |
| 20260505194528 | 15 | 360 | 16.1 | 38.6 | 0.00 | 0.00 | 0.00 | 42 | 1012.8 |
| 20260505193031 | 16 | 360 | 16.1 | 41.8 | 0.00 | 0.00 | 0.00 | 42 | 1012.8 |
| 20260505191511 | 15 | 360 | 12.9 | 41.8 | 0.00 | 0.00 | 0.00 | 44 | 1012.7 |
| 20260505190011 | 15 | 360 | 17.7 | 49.9 | 0.00 | 0.00 | 0.00 | 44 | 1012.3 |
| 20260505184508 | 15 | 360 | 16.1 | 53.1 | 0.00 | 0.00 | 0.00 | 44 | 1012.1 |
| 20260505183012 | 16 | 360 | 9.7 | 41.8 | 0.00 | 0.00 | 0.00 | 45 | 1012.0 |
| 20260505181506 | 15 | 360 | 14.5 | 51.5 | 0.00 | 0.00 | 0.00 | 44 | 1012.0 |
| 20260505180005 | 16 | 360 | 20.9 | 48.3 | 0.00 | 0.00 | 0.00 | 42 | 1011.9 |
| 20260505174504 | 16 | 360 | 19.3 | 59.5 | 0.00 | 0.00 | 0.00 | 42 | 1011.9 |
| 20260505173004 | 16 | 360 | 22.5 | 45.1 | 0.00 | 0.00 | 0.00 | 42 | 1012.1 |
| 20260505171502 | 16 | 360 | 14.5 | 40.2 | 0.00 | 0.00 | 0.00 | 43 | 1011.8 |
| 20260505170137 | 16 | 360 | 17.7 | 43.5 | 0.00 | 0.00 | 0.00 | 42 | 1011.5 |
| 20260505164558 | 16 | 360 | 17.7 | 43.5 | 0.00 | 0.00 | 0.00 | 40 | 1011.4 |
| 20260505163056 | 15 | 360 | 20.9 | 48.3 | 0.00 | 0.00 | 0.00 | 40 | 1011.2 |
| 20260505161602 | 15 | 360 | 24.1 | 48.3 | 0.00 | 0.00 | 0.00 | 41 | 1011.2 |
| 20260505153057 | 15 | 360 | 16.1 | 41.8 | 0.00 | 0.00 | 0.00 | 46 | 1010.8 |
| 20260505151552 | 15 | 360 | 24.1 | 43.5 | 0.00 | 0.00 | 0.00 | 46 | 1010.5 |
| 20260505124522 | 12 | 360 | 8.0 | 33.8 | 0.00 | 0.00 | 0.00 | 72 | 1009.3 |
| 20260505123023 | 11 | 360 | 16.1 | 38.6 | 0.00 | 0.00 | 0.00 | 74 | 1009.3 |
| 20260505121517 | 10 | 360 | 14.5 | 35.4 | 0.00 | 0.00 | 0.00 | 76 | 1008.9 |
| 20260505120014 | 10 | 360 | 12.9 | 32.2 | 0.00 | 0.00 | 0.00 | 77 | 1008.7 |
| 20260505114513 | 10 | 360 | 12.9 | 37.0 | 0.00 | 0.00 | 0.00 | 77 | 1008.7 |
| 20260505113017 | 10 | 360 | 8.0 | 29.0 | 0.00 | 0.00 | 0.00 | 78 | 1008.7 |
| 20260505111510 | 10 | 360 | 9.7 | 29.0 | 0.00 | 0.00 | 0.00 | 77 | 1008.6 |
| 20260505101557 | 8 | 360 | 12.9 | 24.1 | 0.00 | 0.00 | 0.00 | 81 | 1007.5 |
| 20260505100055 | 7 | 360 | 9.7 | 22.5 | 0.00 | 0.00 | 0.00 | 82 | 1007.2 |
| 20260505094551 | 7 | 360 | 6.4 | 30.6 | 0.00 | 0.00 | 0.00 | 82 | 1007.2 |
| 20260505093047 | 6 | 360 | 8.0 | 25.7 | 0.00 | 0.00 | 0.00 | 83 | 1006.6 |
| 20260505091545 | 6 | 360 | 12.9 | 25.7 | 0.00 | 0.00 | 0.00 | 84 | 1006.4 |
| 20260505090052 | 5 | 360 | 11.3 | 30.6 | 0.00 | 0.00 | 0.00 | 85 | 1006.3 |
| 20260505084544 | 5 | 360 | 6.4 | 24.1 | 0.00 | 0.00 | 0.00 | 85 | 1006.5 |